Погода в Сан-Франциско

США     37°45′33″N   122°26′49″W
темп.,
°C
ветер,
м/с
пор.,
м/с
влажн.,
%
обл.,
%
осадки,
мм/ч
давл.,
гПа
погр.,
м
23 января, сб
сб2301:00+10ссв347767 0.8 1013222
04:00+9ссв678056 1.4 1014377
07:00+8ссв57810 0.0 1014423
10:00+9ссв44770 0.0 1015384
13:00+10зсз23680 0.0 1014427
16:00+11зсз56700 0.0 1013279
19:00+10зсз35780 0.0 1014298
22:00+10зсз22790 0.0 101499
24 января, вс
вс2401:00+10сз22800 0.0 1014145
04:00+9зсз34840 0.0 1014253
07:00+9зсз578412 0.0 1014539
10:00+9зсз697433 0.0 1014739
13:00+9зсз3581100 0.7 1012499
16:00+11зюз5779100 2.6 1011761
19:00+9сз13176780 1.1 10111270
22:00+9сз13176177 3.3 10101187
25 января, пн
пн2501:00+7ссз10136961 0.1 1009972
04:00+9сз1420570 0.0 10111598
07:00+9сз1318556 0.0 10121449
10:00+9сз1216523 0.0 10121436
13:00+11сз1114480 0.0 10121588
16:00+10сз1215540 0.0 10111543
19:00+9сз1115560 0.0 10121236
22:00+9сз1115580 0.0 10141163
26 января, вт
вт2601:00+9сз1014520 0.0 1013890
04:00+8сз711540 0.0 1014845
07:00+8ссз35634 0.0 1015425
10:00+8всв12585 0.0 1016413
13:00+10ююз345882 0.0 1015683
16:00+10ю896291 0.0 10131096
19:00+9ююв91270100 0.6 1012873
22:00+9ююв132081100 4.3 10091242
27 января, ср
ср2701:00+11ю172588100 7.4 10061389
04:00+12ю172489100 18.4 10031332
07:00+11ююз71183100 1.9 1008613
10:00+12ю8117682 4.2 1009648
13:00+13ю9127246 0.9 1008751
16:00+13ю10157668 2.7 1007950
19:00+12ю91482100 1.2 1007851
22:00+12ю61075100 1.9 1008537